When you browse on this site, cookies collect data to enhance your experience and personalize the content and advertising you see.
Visit our Privacy Policy to learn more. By continuing to use the site, you agree to this use of cookies and data.
  • In France
  • List of Countries
  • For 7 days
  • Water Temperature
  • Weather Map
  • Weather Widgets
  • user-avatar
    Login

    Hourly Weather Ropotamo

    Today, 13 December, Friday

    Time Temperature Precipitation Wind Pressure Humidity
    00:00 +10°C° 0 mm 2 mps 751 mmHg 89%
    01:00 +10°C° 0 mm 2 mps 750 mmHg 90%
    02:00 +10°C° 0 mm 2 mps 750 mmHg 89%
    03:00 +9°C° 0 mm 2 mps 750 mmHg 89%
    04:00 +9°C° 0 mm 2 mps 750 mmHg 90%
    05:00 +10°C° 0 mm 1 mps 749 mmHg 90%
    06:00 +10°C° 0 mm 1 mps 749 mmHg 90%
    07:00 +10°C° 0 mm 1 mps 749 mmHg 89%
    08:00 +10°C° 0 mm 1 mps 749 mmHg 90%
    09:00 +11°C° 0 mm 1 mps 749 mmHg 87%
    10:00 +12°C° 0 mm 1 mps 749 mmHg 83%
    11:00 +13°C° 0 mm 1 mps 749 mmHg 80%
    12:00 +13°C° 0 mm 2 mps 748 mmHg 78%
    13:00 +14°C° 0 mm 2 mps 748 mmHg 76%
    14:00 +13°C° 0 mm 3 mps 747 mmHg 74%
    15:00 +13°C° 0.1 mm 3 mps 747 mmHg 79%
    16:00 +12°C° 0.1 mm 3 mps 747 mmHg 84%
    17:00 +11°C° 0.1 mm 4 mps 747 mmHg 89%
    18:00 +11°C° 0.1 mm 3 mps 747 mmHg 88%
    19:00 +10°C° 0.1 mm 3 mps 747 mmHg 87%
    20:00 +10°C° 0.1 mm 3 mps 747 mmHg 87%
    21:00 +10°C° 0 mm 4 mps 747 mmHg 86%
    22:00 +10°C° 0 mm 4 mps 746 mmHg 85%
    23:00 +10°C° 0 mm 4 mps 746 mmHg 84%

    Tomorrow, 14 December, Saturday

    Time Temperature Precipitation Wind Pressure Humidity
    00:00 +10°C° 0 mm 4 mps 746 mmHg 85%
    01:00 +10°C° 0 mm 4 mps 746 mmHg 85%
    02:00 +10°C° 0 mm 4 mps 746 mmHg 86%
    03:00 +10°C° 0 mm 4 mps 746 mmHg 86%
    04:00 +10°C° 0 mm 4 mps 745 mmHg 87%
    05:00 +10°C° 0 mm 4 mps 745 mmHg 87%
    06:00 +10°C° 0 mm 4 mps 745 mmHg 88%
    07:00 +8°C° 0 mm 4 mps 746 mmHg 88%
    08:00 +8°C° 0 mm 4 mps 746 mmHg 88%
    09:00 +11°C° 0 mm 4 mps 746 mmHg 81%
    10:00 +13°C° 0 mm 4 mps 747 mmHg 74%
    11:00 +14°C° 0 mm 4 mps 747 mmHg 67%
    12:00 +15°C° 0 mm 4 mps 747 mmHg 66%
    13:00 +15°C° 0 mm 4 mps 747 mmHg 66%
    14:00 +15°C° 0 mm 4 mps 747 mmHg 65%
    15:00 +14°C° 0 mm 4 mps 748 mmHg 69%
    16:00 +13°C° 0 mm 3 mps 748 mmHg 74%
    17:00 +12°C° 0 mm 3 mps 749 mmHg 78%
    18:00 +12°C° 0 mm 3 mps 750 mmHg 79%
    19:00 +13°C° 0 mm 2 mps 750 mmHg 80%
    20:00 +12°C° 0 mm 2 mps 751 mmHg 81%
    21:00 +12°C° 0 mm 1 mps 752 mmHg 80%
    22:00 +12°C° 0 mm 1 mps 752 mmHg 78%
    23:00 +12°C° 0 mm 1 mps 753 mmHg 77%

    Day after tomorrow, 15 December, Sunday

    Time Temperature Precipitation Wind Pressure Humidity
    00:00 +12°C° 0 mm 1 mps 754 mmHg 76%
    01:00 +12°C° 0 mm 1 mps 754 mmHg 75%
    02:00 +12°C° 0 mm 1 mps 755 mmHg 74%
    03:00 +12°C° 0 mm 2 mps 755 mmHg 76%
    04:00 +10°C° 0 mm 3 mps 756 mmHg 78%
    05:00 +10°C° 0 mm 4 mps 756 mmHg 80%
    06:00 +10°C° 0 mm 3 mps 757 mmHg 82%
    07:00 +10°C° 0 mm 3 mps 758 mmHg 83%
    08:00 +10°C° 0 mm 2 mps 759 mmHg 84%
    09:00 +12°C° 0 mm 2 mps 759 mmHg 79%
    10:00 +13°C° 0 mm 2 mps 760 mmHg 75%
    11:00 +13°C° 0 mm 2 mps 760 mmHg 70%
    12:00 +14°C° 0 mm 2 mps 761 mmHg 68%
    13:00 +14°C° 0 mm 2 mps 761 mmHg 66%
    14:00 +15°C° 0 mm 1 mps 761 mmHg 64%
    15:00 +14°C° 0 mm 1 mps 761 mmHg 68%
    16:00 +13°C° 0 mm 1 mps 762 mmHg 72%
    17:00 +12°C° 0 mm 1 mps 762 mmHg 76%
    18:00 +12°C° 0 mm 1 mps 763 mmHg 78%
    19:00 +11°C° 0 mm 1 mps 763 mmHg 80%
    20:00 +11°C° 0 mm 1 mps 764 mmHg 82%
    21:00 +11°C° 0 mm 1 mps 764 mmHg 83%
    22:00 +11°C° 0 mm 1 mps 764 mmHg 84%
    23:00 +10°C° 0 mm 1 mps 764 mmHg 86%

    16 December, Monday

    Time Temperature Precipitation Wind Pressure Humidity
    00:00 +10°C° 0 mm 1 mps 765 mmHg 86%
    01:00 +9°C° 0 mm 2 mps 765 mmHg 86%
    02:00 +9°C° 0 mm 2 mps 765 mmHg 86%
    03:00 +9°C° 0 mm 2 mps 765 mmHg 86%
    04:00 +9°C° 0 mm 2 mps 765 mmHg 86%
    05:00 +8°C° 0 mm 2 mps 765 mmHg 86%
    06:00 +8°C° 0 mm 2 mps 765 mmHg 85%
    07:00 +8°C° 0 mm 2 mps 765 mmHg 84%
    08:00 +9°C° 0 mm 1 mps 765 mmHg 84%
    09:00 +11°C° 0 mm 1 mps 766 mmHg 78%
    10:00 +13°C° 0 mm 1 mps 766 mmHg 73%
    11:00 +14°C° 0 mm 1 mps 766 mmHg 67%
    12:00 +15°C° 0 mm 1 mps 766 mmHg 66%
    13:00 +15°C° 0 mm 1 mps 765 mmHg 65%
    14:00 +16°C° 0 mm 1 mps 765 mmHg 64%
    15:00 +15°C° 0 mm 1 mps 765 mmHg 71%
    16:00 +13°C° 0 mm 2 mps 765 mmHg 77%
    17:00 +12°C° 0 mm 2 mps 765 mmHg 84%
    18:00 +12°C° 0 mm 2 mps 765 mmHg 85%
    19:00 +12°C° 0 mm 2 mps 765 mmHg 86%
    20:00 +10°C° 0 mm 2 mps 765 mmHg 87%
    21:00 +10°C° 0 mm 2 mps 765 mmHg 86%
    22:00 +10°C° 0 mm 2 mps 765 mmHg 86%
    23:00 +10°C° 0 mm 2 mps 765 mmHg 86%

    17 December, Tuesday

    Time Temperature Precipitation Wind Pressure Humidity
    00:00 +11°C° 0 mm 1 mps 765 mmHg 86%
    01:00 +10°C° 0 mm 1 mps 765 mmHg 86%
    02:00 +10°C° 0 mm 1 mps 765 mmHg 86%
    03:00 +10°C° 0 mm 1 mps 765 mmHg 86%
    04:00 +10°C° 0 mm 1 mps 765 mmHg 85%
    05:00 +10°C° 0 mm 1 mps 764 mmHg 85%
    06:00 +10°C° 0 mm 1 mps 765 mmHg 85%
    07:00 +10°C° 0 mm 1 mps 765 mmHg 84%
    08:00 +10°C° 0 mm 1 mps 765 mmHg 84%
    09:00 +11°C° 0 mm 1 mps 765 mmHg 78%
    10:00 +13°C° 0 mm 1 mps 765 mmHg 72%
    11:00 +15°C° 0 mm 1 mps 765 mmHg 66%
    12:00 +15°C° 0 mm 1 mps 765 mmHg 63%
    13:00 +16°C° 0 mm 1 mps 764 mmHg 61%
    14:00 +18°C° 0 mm 1 mps 764 mmHg 58%
    15:00 +15°C° 0 mm 1 mps 764 mmHg 65%
    16:00 +14°C° 0 mm 1 mps 764 mmHg 71%
    17:00 +12°C° 0 mm 1 mps 764 mmHg 77%
    18:00 +12°C° 0 mm 1 mps 764 mmHg 77%
    19:00 +12°C° 0 mm 1 mps 764 mmHg 77%
    20:00 +11°C° 0 mm 1 mps 764 mmHg 77%
    21:00 +11°C° 0 mm 1 mps 764 mmHg 77%
    22:00 +11°C° 0 mm 1 mps 764 mmHg 76%
    23:00 +10°C° 0 mm 2 mps 764 mmHg 75%

    18 December, Wednesday

    Time Temperature Precipitation Wind Pressure Humidity
    00:00 +11°C° 0 mm 1 mps 764 mmHg 75%
    01:00 +10°C° 0 mm 1 mps 764 mmHg 75%
    02:00 +10°C° 0 mm 1 mps 764 mmHg 75%
    03:00 +10°C° 0 mm 1 mps 764 mmHg 75%
    04:00 +10°C° 0 mm 1 mps 764 mmHg 74%
    05:00 +10°C° 0 mm 1 mps 764 mmHg 73%
    06:00 +10°C° 0 mm 1 mps 764 mmHg 73%
    07:00 +9°C° 0 mm 2 mps 764 mmHg 72%
    08:00 +9°C° 0 mm 2 mps 764 mmHg 72%
    09:00 +10°C° 0 mm 2 mps 764 mmHg 67%
    10:00 +13°C° 0 mm 1 mps 764 mmHg 62%
    11:00 +15°C° 0 mm 1 mps 764 mmHg 58%
    12:00 +15°C° 0 mm 1 mps 764 mmHg 56%
    13:00 +16°C° 0 mm 1 mps 763 mmHg 54%
    14:00 +18°C° 0 mm 1 mps 763 mmHg 52%
    15:00 +16°C° 0 mm 1 mps 763 mmHg 57%
    16:00 +14°C° 0 mm 1 mps 763 mmHg 61%
    17:00 +13°C° 0 mm 1 mps 763 mmHg 66%
    18:00 +13°C° 0 mm 2 mps 763 mmHg 68%
    19:00 +12°C° 0 mm 2 mps 763 mmHg 70%
    20:00 +12°C° 0 mm 2 mps 763 mmHg 72%
    21:00 +12°C° 0 mm 2 mps 763 mmHg 71%
    22:00 +12°C° 0 mm 2 mps 763 mmHg 71%
    23:00 +10°C° 0 mm 2 mps 763 mmHg 70%
    Show more